• In Russia
  • List of Countries
  • For 7 days
  • Water Temperature
  • Satellite Maps
  • Weather Map
  • Weather Widgets
  • user-avatar
    Login

    Hourly Weather Sosnowo

    Today, 20 February, Wednesday

    Time Temperature Precipitation Wind Pressure Humidity
    00:00 +2°C° 0 mm 5 mps 747 mmHg 90%
    01:00 +1°C° 0 mm 4 mps 747 mmHg 91%
    02:00 +1°C° 0 mm 5 mps 747 mmHg 91%
    03:00 +1°C° 0 mm 5 mps 747 mmHg 91%
    04:00 +1°C° 0 mm 6 mps 747 mmHg 91%
    05:00 +1°C° 0 mm 6 mps 747 mmHg 90%
    06:00 +1°C° 0 mm 6 mps 747 mmHg 90%
    07:00 +1°C° 0 mm 5 mps 747 mmHg 89%
    08:00 +1°C° 0.1 mm 6 mps 748 mmHg 83%
    09:00 +2°C° 0.1 mm 7 mps 748 mmHg 77%
    10:00 +2°C° 0.1 mm 8 mps 748 mmHg 71%
    11:00 +2°C° 0.1 mm 8 mps 749 mmHg 70%
    12:00 +2°C° 0.1 mm 8 mps 749 mmHg 68%
    13:00 +2°C° 0.1 mm 8 mps 749 mmHg 67%
    14:00 +2°C° 0 mm 8 mps 749 mmHg 67%
    15:00 +3°C° 0 mm 7 mps 750 mmHg 67%
    16:00 +3°C° 0 mm 7 mps 750 mmHg 67%
    17:00 +3°C° 0 mm 6 mps 750 mmHg 70%
    18:00 +3°C° 0 mm 6 mps 751 mmHg 73%
    19:00 +2°C° 0 mm 5 mps 751 mmHg 76%
    20:00 +1°C° 0 mm 5 mps 752 mmHg 79%
    21:00 +1°C° 0 mm 4 mps 752 mmHg 82%
    22:00 +1°C° 0 mm 3 mps 753 mmHg 85%
    23:00 +1°C° 0 mm 3 mps 753 mmHg 87%

    Tomorrow, 21 February, Thursday

    Time Temperature Precipitation Wind Pressure Humidity
    00:00 0°C° 0 mm 3 mps 753 mmHg 89%
    01:00 +1°C° 0 mm 2 mps 754 mmHg 91%
    02:00 +1°C° 0 mm 2 mps 754 mmHg 91%
    03:00 -1°C° 0 mm 2 mps 754 mmHg 92%
    04:00 -1°C° 0 mm 2 mps 754 mmHg 92%
    05:00 +1°C° 0.1 mm 2 mps 754 mmHg 93%
    06:00 +1°C° 0.1 mm 2 mps 754 mmHg 95%
    07:00 +2°C° 0.1 mm 1 mps 754 mmHg 96%
    08:00 +2°C° 0.3 mm 2 mps 754 mmHg 96%
    09:00 +2°C° 0.3 mm 2 mps 754 mmHg 96%
    10:00 +2°C° 0.3 mm 3 mps 754 mmHg 95%
    11:00 +2°C° 0.9 mm 3 mps 753 mmHg 95%
    12:00 +3°C° 0.9 mm 3 mps 753 mmHg 94%
    13:00 +3°C° 0.9 mm 3 mps 752 mmHg 94%
    14:00 +3°C° 0.9 mm 4 mps 752 mmHg 94%
    15:00 +3°C° 0.9 mm 4 mps 751 mmHg 93%
    16:00 +2°C° 0.9 mm 5 mps 751 mmHg 93%
    17:00 +2°C° 0.9 mm 5 mps 750 mmHg 93%
    18:00 +2°C° 0.9 mm 5 mps 750 mmHg 94%
    19:00 +2°C° 0.9 mm 5 mps 750 mmHg 94%
    20:00 +3°C° 0.7 mm 4 mps 750 mmHg 94%
    21:00 +3°C° 0.7 mm 4 mps 750 mmHg 95%
    22:00 +3°C° 0.7 mm 3 mps 749 mmHg 95%
    23:00 +1°C° 0.5 mm 5 mps 750 mmHg 94%

    Day after tomorrow, 22 February, Friday

    Time Temperature Precipitation Wind Pressure Humidity
    00:00 -1°C° 0.5 mm 6 mps 750 mmHg 93%
    01:00 -2°C° 0.5 mm 7 mps 751 mmHg 92%
    02:00 -3°C° 0.1 mm 7 mps 752 mmHg 88%
    03:00 -5°C° 0.1 mm 8 mps 753 mmHg 85%
    04:00 -6°C° 0.1 mm 8 mps 754 mmHg 81%
    05:00 -6°C° 0 mm 7 mps 755 mmHg 78%
    06:00 -7°C° 0 mm 7 mps 757 mmHg 74%
    07:00 -7°C° 0 mm 7 mps 758 mmHg 70%
    08:00 -7°C° 0 mm 7 mps 759 mmHg 65%
    09:00 -7°C° 0 mm 7 mps 760 mmHg 59%
    10:00 -7°C° 0 mm 7 mps 761 mmHg 54%
    11:00 -6°C° 0 mm 6 mps 762 mmHg 53%
    12:00 -5°C° 0 mm 6 mps 763 mmHg 51%
    13:00 -5°C° 0 mm 6 mps 763 mmHg 50%
    14:00 -5°C° 0 mm 6 mps 764 mmHg 50%
    15:00 -5°C° 0 mm 5 mps 764 mmHg 50%
    16:00 -6°C° 0 mm 5 mps 765 mmHg 50%
    17:00 -6°C° 0 mm 5 mps 765 mmHg 50%
    18:00 -6°C° 0 mm 5 mps 766 mmHg 51%
    19:00 -7°C° 0 mm 5 mps 766 mmHg 51%
    20:00 -7°C° 0 mm 5 mps 767 mmHg 50%
    21:00 -7°C° 0 mm 5 mps 767 mmHg 49%
    22:00 -7°C° 0 mm 5 mps 768 mmHg 48%
    23:00 -7°C° 0 mm 4 mps 768 mmHg 49%

    23 February, Saturday

    Time Temperature Precipitation Wind Pressure Humidity
    00:00 -7°C° 0 mm 4 mps 768 mmHg 50%
    01:00 -8°C° 0 mm 4 mps 769 mmHg 51%
    02:00 -7°C° 0 mm 3 mps 768 mmHg 52%
    03:00 -7°C° 0 mm 3 mps 768 mmHg 53%
    04:00 -6°C° 0 mm 2 mps 768 mmHg 55%
    05:00 -6°C° 0 mm 2 mps 769 mmHg 56%
    06:00 -6°C° 0 mm 2 mps 769 mmHg 57%
    07:00 -7°C° 0 mm 2 mps 769 mmHg 58%
    08:00 -6°C° 0 mm 2 mps 769 mmHg 52%
    09:00 -5°C° 0 mm 2 mps 769 mmHg 46%
    10:00 -4°C° 0 mm 2 mps 769 mmHg 40%
    11:00 -4°C° 0 mm 2 mps 769 mmHg 36%
    12:00 -3°C° 0 mm 2 mps 769 mmHg 33%
    13:00 -2°C° 0 mm 2 mps 769 mmHg 29%
    14:00 -2°C° 0 mm 2 mps 769 mmHg 29%
    15:00 -2°C° 0 mm 2 mps 768 mmHg 29%
    16:00 -2°C° 0 mm 2 mps 768 mmHg 29%
    17:00 -2°C° 0 mm 2 mps 768 mmHg 32%
    18:00 0°C° 0 mm 1 mps 768 mmHg 35%
    19:00 0°C° 0 mm 1 mps 768 mmHg 38%
    20:00 0°C° 0 mm 1 mps 768 mmHg 40%
    21:00 0°C° 0 mm 1 mps 767 mmHg 41%
    22:00 0°C° 0 mm 1 mps 767 mmHg 43%
    23:00 -2°C° 0 mm 2 mps 767 mmHg 45%

    24 February, Sunday

    Time Temperature Precipitation Wind Pressure Humidity
    00:00 -2°C° 0 mm 2 mps 767 mmHg 47%
    01:00 -2°C° 0 mm 2 mps 767 mmHg 49%
    02:00 -2°C° 0 mm 2 mps 766 mmHg 52%
    03:00 -2°C° 0 mm 3 mps 766 mmHg 54%
    04:00 -2°C° 0 mm 3 mps 766 mmHg 56%
    05:00 -2°C° 0 mm 3 mps 766 mmHg 57%
    06:00 -2°C° 0 mm 3 mps 765 mmHg 58%
    07:00 -2°C° 0 mm 3 mps 765 mmHg 59%
    08:00 -1°C° 0 mm 3 mps 765 mmHg 57%
    09:00 0°C° 0 mm 3 mps 765 mmHg 54%
    10:00 0°C° 0 mm 3 mps 765 mmHg 51%
    11:00 +1°C° 0 mm 3 mps 765 mmHg 52%
    12:00 +2°C° 0 mm 3 mps 765 mmHg 53%
    13:00 +4°C° 0 mm 2 mps 765 mmHg 54%
    14:00 +4°C° 0 mm 2 mps 764 mmHg 59%
    15:00 +3°C° 0 mm 2 mps 764 mmHg 63%
    16:00 +3°C° 0 mm 2 mps 764 mmHg 68%
    17:00 +2°C° 0 mm 2 mps 764 mmHg 72%
    18:00 +1°C° 0 mm 2 mps 764 mmHg 76%
    19:00 -1°C° 0 mm 2 mps 764 mmHg 80%
    20:00 -1°C° 0 mm 2 mps 764 mmHg 82%
    21:00 -1°C° 0 mm 2 mps 763 mmHg 83%
    22:00 -1°C° 0 mm 2 mps 763 mmHg 84%
    23:00 -1°C° 0 mm 2 mps 763 mmHg 85%

    25 February, Monday

    Time Temperature Precipitation Wind Pressure Humidity
    00:00 -1°C° 0 mm 2 mps 763 mmHg 87%
    01:00 0°C° 0 mm 3 mps 763 mmHg 88%
    02:00 -1°C° 0 mm 3 mps 762 mmHg 89%
    03:00 -1°C° 0 mm 3 mps 762 mmHg 91%
    04:00 -1°C° 0 mm 3 mps 762 mmHg 92%
    05:00 -1°C° 0 mm 3 mps 762 mmHg 93%
    06:00 -2°C° 0 mm 4 mps 761 mmHg 93%
    07:00 -1°C° 0 mm 4 mps 761 mmHg 94%
    08:00 0°C° 0 mm 5 mps 762 mmHg 88%
    09:00 +1°C° 0 mm 6 mps 762 mmHg 83%
    10:00 +3°C° 0 mm 7 mps 763 mmHg 77%
    11:00 +3°C° 0 mm 6 mps 763 mmHg 75%
    12:00 +3°C° 0 mm 6 mps 763 mmHg 72%
    13:00 +4°C° 0 mm 6 mps 763 mmHg 69%
    14:00 +3°C° 0 mm 5 mps 763 mmHg 71%
    15:00 +4°C° 0 mm 4 mps 763 mmHg 73%
    16:00 +3°C° 0 mm 4 mps 763 mmHg 74%
    17:00 +1°C° 0 mm 4 mps 763 mmHg 79%
    18:00 0°C° 0 mm 4 mps 764 mmHg 85%
    19:00 0°C° 0 mm 3 mps 764 mmHg 90%
    20:00 -1°C° 0 mm 3 mps 764 mmHg 90%
    21:00 -1°C° 0 mm 3 mps 764 mmHg 90%
    22:00 -1°C° 0 mm 3 mps 764 mmHg 90%
    23:00 -1°C° 0 mm 3 mps 764 mmHg 91%
    Show more